GW3733 Weather Reports


Display with metric or nautical units.
time (UTC)temp
F
wind
direction
speed
MPH
gust
MPH
rain 1hr
in
rain 24hr
in
rain mn
in
humidity
%
barometer
mb
20260504050502 35 11 0.0 0.0 0.00 0.00 0.00 95 1011.5
20260504045959 35 11 0.0 0.0 0.00 0.00 0.00 96 1011.3
20260504045455 34 11 0.0 0.0 0.00 0.00 0.00 95 1011.2
20260504044951 33 11 0.0 0.0 0.00 0.00 0.00 95 1011.1
20260504044449 33 11 0.0 0.0 0.00 0.00 0.00 95 1011.2
20260504043946 33 11 0.0 0.0 0.00 0.00 0.00 95 1011.4
20260504043443 34 11 0.0 0.0 0.00 0.00 0.00 94 1011.2
20260504042940 34 11 0.0 0.0 0.00 0.00 0.00 94 1011.2
20260504042436 34 11 0.0 0.0 0.00 0.00 0.00 94 1011.2
20260504041933 34 11 0.0 0.0 0.00 0.00 0.00 94 1011.0
20260504041429 34 11 0.0 0.0 0.00 0.00 0.00 93 1011.4
20260504040925 34 11 0.0 0.0 0.00 0.00 0.00 93 1011.4
20260504040424 34 11 0.0 0.0 0.00 0.00 0.00 93 1011.4
20260504035919 34 11 0.0 0.0 0.00 0.00 0.00 93 1011.3
20260504035417 34 11 0.0 0.0 0.00 0.00 0.00 93 1011.5
20260504034913 34 11 0.0 0.0 0.00 0.00 0.00 93 1011.6
20260504034411 34 12 0.0 0.0 0.00 0.00 0.00 93 1011.5
20260504033908 35 12 0.0 0.0 0.00 0.00 0.00 93 1011.3
20260504033406 35 12 0.0 0.0 0.00 0.00 0.00 93 1011.2
20260504032902 35 11 0.0 0.0 0.00 0.00 0.00 92 1011.1
20260504032359 35 12 0.0 0.0 0.00 0.00 0.00 91 1011.2
20260504031856 36 12 0.0 0.0 0.00 0.00 0.00 90 1011.2
20260504031353 36 12 0.0 0.0 0.00 0.00 0.00 90 1011.1
20260504030849 36 12 0.0 0.0 0.00 0.00 0.00 88 1011.3
20260504030347 37 12 0.0 0.0 0.00 0.00 0.00 87 1011.1
20260504025843 37 12 0.0 0.0 0.00 0.00 0.00 88 1011.3
20260504025340 38 12 0.0 0.0 0.00 0.00 0.00 87 1011.3
20260504024836 38 13 0.0 0.0 0.00 0.00 0.00 84 1011.2
20260504024333 38 14 0.0 0.0 0.00 0.00 0.00 84 1011.4
20260504023830 39 1 0.0 0.0 0.00 0.00 0.00 86 1011.1
20260504023327 39 1 0.0 1.0 0.00 0.00 0.00 85 1011.1
20260504022822 39 2 0.0 0.0 0.00 0.00 0.00 84 1011.2
20260504022319 39 1 0.0 0.0 0.00 0.00 0.00 84 1011.2
20260504021816 39 1 0.0 0.0 0.00 0.00 0.00 85 1011.2
20260504021314 39 1 0.0 0.0 0.00 0.00 0.00 85 1011.3
20260504020810 39 7 0.0 0.0 0.00 0.00 0.00 86 1011.0
20260504020307 39 9 0.0 0.0 0.00 0.00 0.00 83 1011.1
20260504015803 39 345 1.0 1.0 0.00 0.00 0.00 84 1011.1
20260504015259 39 357 0.0 0.0 0.00 0.00 0.00 82 1011.0
20260504014755 40 357 0.0 0.0 0.00 0.00 0.00 83 1010.9
20260504014252 40 357 0.0 0.0 0.00 0.00 0.00 83 1010.9
20260504013749 40 356 0.0 0.0 0.00 0.00 0.00 84 1011.0
20260504013247 40 357 0.0 0.0 0.00 0.00 0.00 83 1010.6
20260504012743 41 358 0.0 0.0 0.00 0.00 0.00 81 1010.8
20260504012241 41 3 0.0 0.0 0.00 0.00 0.00 79 1010.6
20260504011738 41 2 0.0 0.0 0.00 0.00 0.00 82 1010.6
20260504011235 41 0 0.0 0.0 0.00 0.00 0.00 83 1010.5
20260504010731 41 350 0.0 0.0 0.00 0.00 0.00 83 1010.3
20260504010226 41 350 0.0 0.0 0.00 0.00 0.00 79 1010.4
20260504005723 42 350 0.0 0.0 0.00 0.00 0.00 81 1010.3
20260504005220 42 350 0.0 0.0 0.00 0.00 0.00 79 1010.3
20260504004718 43 350 0.0 0.0 0.00 0.00 0.00 76 1010.5
20260504004215 43 350 0.0 0.0 0.00 0.00 0.00 76 1010.3
20260504003712 44 350 0.0 0.0 0.00 0.00 0.00 71 1010.5
20260504003208 45 350 0.0 0.0 0.00 0.00 0.00 70 1010.2
20260504002705 45 350 0.0 0.0 0.00 0.00 0.00 71 1010.2
20260504002202 46 350 0.0 0.0 0.00 0.00 0.00 67 1010.1
20260504001700 47 350 0.0 0.0 0.00 0.00 0.00 67 1010.3
20260504001156 49 349 0.0 0.0 0.00 0.00 0.00 65 1010.3
20260504000653 50 348 0.0 0.0 0.00 0.00 0.00 59 1010.3
20260504000151 51 5 0.0 0.0 0.00 0.00 0.00 52 1010.1
20260503235649 52 1 0.0 0.0 0.00 0.00 0.00 47 1010.1
20260503235145 52 10 2.0 2.0 0.00 0.00 0.00 49 1010.1
20260503234643 54 349 0.0 0.0 0.00 0.00 0.00 47 1010.0
20260503234141 55 352 0.0 0.0 0.00 0.00 0.00 41 1009.9
20260503233638 55 18 1.0 2.0 0.00 0.00 0.00 37 1010.2
20260503233133 56 347 0.0 1.0 0.00 0.00 0.00 40 1010.3
20260503232630 56 7 0.0 0.0 0.00 0.00 0.00 38 1010.1
20260503232128 56 3 1.0 2.0 0.00 0.00 0.00 37 1010.3
20260503231626 57 341 1.0 1.0 0.00 0.00 0.00 34 1009.9
20260503231122 57 344 2.0 3.0 0.00 0.00 0.00 34 1010.2
20260503230619 57 340 0.0 1.0 0.00 0.00 0.00 33 1010.1
20260503230116 57 350 0.0 1.0 0.00 0.00 0.00 35 1010.1
20260503225614 58 333 2.0 2.0 0.00 0.00 0.00 36 1010.0
20260503225113 58 295 2.0 2.0 0.00 0.00 0.00 34 1010.0
20260503224611 58 1 0.0 0.0 0.00 0.00 0.00 33 1009.9
20260503224109 58 341 1.0 1.0 0.00 0.00 0.00 35 1009.9
20260503223607 59 309 2.0 3.0 0.00 0.00 0.00 34 1009.9
20260503223102 59 251 2.0 3.0 0.00 0.00 0.00 34 1009.9
20260503222600 59 286 2.0 3.0 0.00 0.00 0.00 34 1009.9
20260503222058 59 345 0.0 0.0 0.00 0.00 0.00 35 1009.8
20260503221555 59 296 3.0 4.0 0.00 0.00 0.00 34 1009.8
20260503221053 59 5 1.0 1.0 0.00 0.00 0.00 35 1009.9
20260503220549 59 356 0.0 0.0 0.00 0.00 0.00 34 1009.8
20260503220046 59 300 1.0 1.0 0.00 0.00 0.00 32 1009.9
20260503215543 59 11 2.0 2.0 0.00 0.00 0.00 32 1009.8
20260503215040 59 355 1.0 2.0 0.00 0.00 0.00 34 1010.0
20260503214538 60 281 3.0 3.0 0.00 0.00 0.00 33 1010.0
20260503214034 59 339 2.0 3.0 0.00 0.00 0.00 34 1009.8
20260503213533 60 314 2.0 2.0 0.00 0.00 0.00 33 1010.2
20260503213029 60 343 1.0 2.0 0.00 0.00 0.00 31 1010.0
20260503212527 60 210 2.0 3.0 0.00 0.00 0.00 31 1010.1
20260503212024 60 0 1.0 1.0 0.00 0.00 0.00 30 1009.9
20260503211521 60 264 3.0 4.0 0.00 0.00 0.00 34 1009.9
20260503211016 60 319 1.0 1.0 0.00 0.00 0.00 33 1009.7
20260503210513 60 260 2.0 2.0 0.00 0.00 0.00 34 1010.1
20260503210009 60 246 2.0 2.0 0.00 0.00 0.00 34 1010.1
20260503205506 61 307 0.0 1.0 0.00 0.00 0.00 32 1010.0
20260503205002 61 180 4.0 6.0 0.00 0.00 0.00 35 1010.1
20260503204459 60 226 2.0 2.0 0.00 0.00 0.00 35 1010.0
20260503203956 59 298 2.0 2.0 0.00 0.00 0.00 36 1009.9
20260503203454 59 213 4.0 6.0 0.00 0.00 0.00 33 1010.0
20260503202950 59 306 4.0 7.0 0.00 0.00 0.00 34 1010.3
20260503202448 60 294 1.0 2.0 0.00 0.00 0.00 34 1010.2
20260503201947 60 12 2.0 2.0 0.00 0.00 0.00 32 1010.2
20260503201444 60 293 2.0 3.0 0.00 0.00 0.00 34 1010.5
20260503200941 60 215 2.0 2.0 0.00 0.00 0.00 33 1010.4
20260503200437 60 20 1.0 1.0 0.00 0.00 0.00 31 1010.4
20260503195934 59 12 3.0 4.0 0.00 0.00 0.00 34 1010.5
20260503195431 60 337 4.0 7.0 0.00 0.00 0.00 34 1010.4
20260503194927 60 247 2.0 2.0 0.00 0.00 0.00 35 1010.6
20260503194425 60 201 6.0 7.0 0.00 0.00 0.00 33 1010.5
20260503193920 60 349 3.0 3.0 0.00 0.00 0.00 33 1010.6
20260503193416 60 30 2.0 3.0 0.00 0.00 0.00 32 1010.8
20260503192911 60 281 6.0 9.0 0.00 0.00 0.00 33 1011.0
20260503192408 60 317 2.0 3.0 0.00 0.00 0.00 31 1011.0
20260503191904 59 274 2.0 2.0 0.00 0.00 0.00 33 1010.9
20260503191401 58 326 2.0 3.0 0.00 0.00 0.00 33 1011.1
20260503190857 59 359 2.0 3.0 0.00 0.00 0.00 36 1011.1
20260503190355 59 320 2.0 4.0 0.00 0.00 0.00 31 1011.3
20260503185852 59 343 3.0 6.0 0.00 0.00 0.00 33 1011.3
20260503185348 59 254 2.0 3.0 0.00 0.00 0.00 31 1011.4
20260503184848 59 321 0.0 1.0 0.00 0.00 0.00 35 1011.5
20260503184344 58 286 2.0 3.0 0.00 0.00 0.00 40 1011.5
20260503183840 58 210 1.0 2.0 0.00 0.00 0.00 33 1011.6
20260503183337 59 332 3.0 4.0 0.00 0.00 0.00 34 1011.6
20260503182835 58 220 5.0 7.0 0.00 0.00 0.00 32 1011.4
20260503182334 58 270 2.0 3.0 0.00 0.00 0.00 34 1011.6
20260503181830 58 217 4.0 6.0 0.00 0.00 0.00 34 1011.6
20260503181327 57 358 4.0 6.0 0.00 0.00 0.00 34 1011.5
20260503180824 57 348 3.0 3.0 0.00 0.00 0.00 35 1011.6
20260503180322 57 236 4.0 6.0 0.00 0.00 0.00 33 1011.4
20260503175818 58 54 2.0 2.0 0.00 0.00 0.00 32 1011.6
20260503175316 57 279 4.0 6.0 0.00 0.00 0.00 34 1012.0
20260503174811 57 321 3.0 6.0 0.00 0.00 0.00 36 1012.2
20260503174310 56 320 5.0 8.0 0.00 0.00 0.00 38 1012.0
20260503173805 57 359 5.0 7.0 0.00 0.00 0.00 35 1011.8
20260503173301 56 312 0.0 1.0 0.00 0.00 0.00 37 1011.8
20260503172758 57 347 3.0 3.0 0.00 0.00 0.00 38 1012.2
20260503172256 56 256 2.0 3.0 0.00 0.00 0.00 39 1012.1
20260503171752 55 6 1.0 1.0 0.00 0.00 0.00 42 1012.3
20260503171249 55 36 4.0 7.0 0.00 0.00 0.00 38 1012.5
20260503170746 56 357 3.0 3.0 0.00 0.00 0.00 39 1012.5
20260503170243 56 148 2.0 3.0 0.00 0.00 0.00 42 1012.2
20260503160205 52 178 3.0 4.0 0.00 0.00 0.00 40 1012.8
20260503150635 51 333 2.0 2.0 0.00 0.00 0.00 46 1013.0
20260503150131 50 3 0.0 1.0 0.00 0.00 0.00 53 1013.0
20260503131025 45 272 4.0 4.0 0.00 0.00 0.00 64 1013.1
20260503130522 45 194 2.0 2.0 0.00 0.00 0.00 63 1012.9
20260503110413 37 24 1.0 1.0 0.00 0.00 0.00 79 1012.3
20260503090303 34 21 0.0 0.0 0.00 0.00 0.00 88 1011.2
20260503081231 39 326 1.0 1.0 0.00 0.00 0.00 77 1011.1
20260503080727 39 3 0.0 0.0 0.00 0.00 0.00 76 1011.1
20260503080224 39 43 1.0 1.0 0.00 0.00 0.00 78 1011.1
20260503072701 40 13 1.0 1.0 0.00 0.00 0.00 74 1010.5
20260503072157 40 184 2.0 3.0 0.00 0.00 0.00 75 1010.5
20260503071654 40 350 0.0 0.0 0.00 0.00 0.00 78 1010.4
20260503071151 39 36 1.0 1.0 0.00 0.00 0.00 76 1010.8
20260503070648 40 328 0.0 0.0 0.00 0.00 0.00 75 1010.4
20260503070146 40 12 0.0 0.0 0.00 0.00 0.00 75 1010.4
20260503060110 38 298 1.0 1.0 0.00 0.00 0.00 80 1010.5